This is the latest recevied weather packets stored in our database for station/object K5NAN. If no packets are shown the sender has not sent any weather packets the latest 10 day(s).
| Time | Temp. | Humidity | Pressure | Rain* | Wind** | Luminosity | Snow |
|---|---|---|---|---|---|---|---|
| 1777658223 | 16.11° C | 64% | 1015.5 hPa | 0 mm | - | 408 W/m² | - |
| 1777657920 | 16.67° C | 62% | 1015.4 hPa | 0 mm | - | 338 W/m² | - |
| 1777657617 | 16.11° C | 62% | 1015.5 hPa | 0 mm | - | 384 W/m² | - |
| 1777657315 | 16.11° C | 60% | 1015.7 hPa | 0 mm | - | 415 W/m² | - |
| 1777657012 | 16.67° C | 63% | 1015.8 hPa | 0 mm | - | 426 W/m² | - |
| 1777656709 | 16.11° C | 68% | 1015.7 hPa | 0 mm | - | 767 W/m² | - |
| 1777656405 | 16.11° C | 66% | 1015.8 hPa | 0 mm | - | 473 W/m² | - |
| 1777656100 | 16.11° C | 67% | 1016.2 hPa | 0 mm | - | 541 W/m² | - |
| 1777655796 | 16.11° C | 68% | 1016 hPa | 0 mm | - | 414 W/m² | - |
| 1777655493 | 16.67° C | 68% | 1015.8 hPa | 0 mm | - | 779 W/m² | - |
| 1777655190 | 16.67° C | 65% | 1016 hPa | 0 mm | - | 444 W/m² | - |
| 1777654887 | 16.11° C | 67% | 1016.4 hPa | 0 mm | - | 880 W/m² | - |
| 1777654584 | 16.11° C | 68% | 1016.1 hPa | 0 mm | - | 683 W/m² | - |
| 1777654281 | 15.56° C | 68% | 1016.1 hPa | 0 mm | - | 778 W/m² | - |
| 1777653980 | 15.56° C | 68% | 1016.1 hPa | 0 mm | - | 496 W/m² | - |
| 1777653676 | 15.56° C | 72% | 1016.1 hPa | 0 mm | - | 441 W/m² | - |
| 1777653373 | 14.44° C | 76% | 1016.2 hPa | 0 mm | - | 428 W/m² | - |
| 1777653070 | 14.44° C | 75% | 1016.1 hPa | 0 mm | - | 227 W/m² | - |
| 1777652766 | 14.44° C | 78% | 1016.4 hPa | 0 mm | - | 270 W/m² | - |
| 1777652463 | 13.89° C | 79% | 1016.5 hPa | 0 mm | - | 287 W/m² | - |
| 1777652160 | 13.89° C | 80% | 1016.2 hPa | 0 mm | - | 275 W/m² | - |
| 1777651857 | 13.89° C | 81% | 1016.6 hPa | 0 mm | - | 259 W/m² | - |
| 1777651554 | 13.89° C | 82% | 1016.6 hPa | 0 mm | - | 248 W/m² | - |
| 1777651250 | 13.89° C | 82% | 1016.5 hPa | 0 mm | - | 221 W/m² | - |
| 1777650947 | 13.33° C | 82% | 1016.8 hPa | 0 mm | - | 182 W/m² | - |
* Rain latest hour (hover to see other rain measurements)
** Current wind speed in m/s (hover to see current wind gust speed)